BEIDOU-3S IGSO-1S (C31)

Last updated on Sat Aug 15 2026 00:03:26 GMT+0000 (Coordinated Universal Time)

1 40549U 15019A 26226.55790059 -.00000166 00000+0 00000+0 0 9998 2 40549 49.0819 294.7556 0038923 199.0469 123.9838 1.00295440 41651
UTC large
Height (km)
Speed (km/s)
/
Latitude / Longitude
Inclination (degrees)
Orbital Period (minutes)
Azimuth
Elevation
Range (km)
Doppler Factor

Next 0 passes for location: London (51.5072 / 0.1276)

No passes found over London.
BEIDOU-3S IGSO-1S (C31)